Year,Month,Day,Hour,Minute,Value (Times are PST for temperature in C)
2017,06,25,00,00,16.90
2017,06,25,00,01,16.80
2017,06,25,00,02,16.80
2017,06,25,00,03,16.80
2017,06,25,00,04,16.80
2017,06,25,00,05,16.80
2017,06,25,00,06,16.80
2017,06,25,00,07,16.80
2017,06,25,00,08,16.80
2017,06,25,00,09,16.80
2017,06,25,00,10,16.90
2017,06,25,00,11,16.90
2017,06,25,00,12,16.90
2017,06,25,00,13,17.00
2017,06,25,00,14,17.00
2017,06,25,00,15,17.00
2017,06,25,00,16,17.00
2017,06,25,00,17,17.00
2017,06,25,00,18,17.00
2017,06,25,00,19,17.00
2017,06,25,00,20,17.00
2017,06,25,00,21,17.00
2017,06,25,00,22,17.00
2017,06,25,00,23,16.90
2017,06,25,00,24,17.00
2017,06,25,00,25,16.90
2017,06,25,00,26,16.90
2017,06,25,00,27,16.90
2017,06,25,00,28,16.90
2017,06,25,00,29,16.90
2017,06,25,00,30,16.80
2017,06,25,00,31,16.80
2017,06,25,00,32,16.80
2017,06,25,00,33,16.80
2017,06,25,00,34,16.70
2017,06,25,00,35,16.70
2017,06,25,00,36,16.70
2017,06,25,00,37,16.60
2017,06,25,00,38,16.60
2017,06,25,00,39,16.60
2017,06,25,00,40,16.50
2017,06,25,00,41,16.50
2017,06,25,00,42,16.50
2017,06,25,00,43,16.40
2017,06,25,00,44,16.40
2017,06,25,00,45,16.40
2017,06,25,00,46,16.40
2017,06,25,00,47,16.40
2017,06,25,00,48,16.40
2017,06,25,00,49,16.40
2017,06,25,00,50,16.40
2017,06,25,00,51,16.40
2017,06,25,00,52,16.40
2017,06,25,00,53,16.30
2017,06,25,00,54,16.30
2017,06,25,00,55,16.30
2017,06,25,00,56,16.30
2017,06,25,00,57,16.30
2017,06,25,00,58,16.20
2017,06,25,00,59,16.20
2017,06,25,01,00,16.20
2017,06,25,01,01,16.10
2017,06,25,01,02,16.10
2017,06,25,01,03,16.10
2017,06,25,01,04,16.10
2017,06,25,01,05,16.10
2017,06,25,01,06,16.00
2017,06,25,01,07,16.00
2017,06,25,01,08,16.00
2017,06,25,01,09,16.00
2017,06,25,01,10,16.00
2017,06,25,01,11,15.90
2017,06,25,01,12,15.90
2017,06,25,01,13,15.90
2017,06,25,01,14,15.90
2017,06,25,01,15,16.00
2017,06,25,01,16,16.00
2017,06,25,01,17,16.00
2017,06,25,01,18,15.90
2017,06,25,01,19,15.90
2017,06,25,01,20,15.90
2017,06,25,01,21,15.90
2017,06,25,01,22,15.90
2017,06,25,01,23,15.90
2017,06,25,01,24,15.90
2017,06,25,01,25,15.80
2017,06,25,01,26,15.80
2017,06,25,01,27,15.90
2017,06,25,01,28,15.90
2017,06,25,01,29,15.90
2017,06,25,01,30,15.90
2017,06,25,01,31,15.90
2017,06,25,01,32,15.90
2017,06,25,01,33,15.80
2017,06,25,01,34,15.80
2017,06,25,01,35,15.80
2017,06,25,01,36,15.80
2017,06,25,01,37,15.80
2017,06,25,01,38,15.70
2017,06,25,01,39,15.70
2017,06,25,01,40,15.70
2017,06,25,01,41,15.60
2017,06,25,01,42,15.60
2017,06,25,01,43,15.60
2017,06,25,01,44,15.60
2017,06,25,01,45,15.60
2017,06,25,01,46,15.60
2017,06,25,01,47,15.60
2017,06,25,01,48,15.60
2017,06,25,01,49,15.50
2017,06,25,01,50,15.50
2017,06,25,01,51,15.50
2017,06,25,01,52,15.50
2017,06,25,01,53,15.50
2017,06,25,01,54,15.40
2017,06,25,01,55,15.40
2017,06,25,01,56,15.40
2017,06,25,01,57,15.40
2017,06,25,01,58,15.40
2017,06,25,01,59,15.40
2017,06,25,02,00,15.40
2017,06,25,02,01,15.40
2017,06,25,02,02,15.50
2017,06,25,02,03,15.50
2017,06,25,02,04,15.50
2017,06,25,02,05,15.50
2017,06,25,02,06,15.60
2017,06,25,02,07,15.60
2017,06,25,02,08,15.60
2017,06,25,02,09,15.60
2017,06,25,02,10,15.50
2017,06,25,02,11,15.50
2017,06,25,02,12,15.50
2017,06,25,02,13,15.50
2017,06,25,02,14,15.50
2017,06,25,02,15,15.40
2017,06,25,02,16,15.40
2017,06,25,02,17,15.40
2017,06,25,02,18,15.40
2017,06,25,02,19,15.40
2017,06,25,02,20,15.40
2017,06,25,02,21,15.50
2017,06,25,02,22,15.60
2017,06,25,02,23,15.60
2017,06,25,02,24,15.60
2017,06,25,02,25,15.70
2017,06,25,02,26,15.70
2017,06,25,02,27,15.80
2017,06,25,02,28,15.90
2017,06,25,02,29,15.90
2017,06,25,02,30,16.00
2017,06,25,02,31,16.10
2017,06,25,02,32,16.10
2017,06,25,02,33,16.10
2017,06,25,02,34,16.10
2017,06,25,02,35,16.10
2017,06,25,02,36,16.10
2017,06,25,02,37,16.10
2017,06,25,02,38,16.00
2017,06,25,02,39,16.00
2017,06,25,02,40,15.90
2017,06,25,02,41,15.90
2017,06,25,02,42,15.90
2017,06,25,02,43,15.80
2017,06,25,02,44,15.80
2017,06,25,02,45,15.70
2017,06,25,02,46,15.70
2017,06,25,02,47,15.60
2017,06,25,02,48,15.60
2017,06,25,02,49,15.50
2017,06,25,02,50,15.50
2017,06,25,02,51,15.40
2017,06,25,02,52,15.40
2017,06,25,02,53,15.40
2017,06,25,02,54,15.40
2017,06,25,02,55,15.40
2017,06,25,02,56,15.30
2017,06,25,02,57,15.30
2017,06,25,02,58,15.30
2017,06,25,02,59,15.30
2017,06,25,03,00,15.40
2017,06,25,03,01,15.40
2017,06,25,03,02,15.40
2017,06,25,03,03,15.40
2017,06,25,03,04,15.50
2017,06,25,03,05,15.60
2017,06,25,03,06,15.60
2017,06,25,03,07,15.80
2017,06,25,03,08,15.90
2017,06,25,03,09,15.90
2017,06,25,03,10,16.00
2017,06,25,03,11,16.00
2017,06,25,03,12,16.00
2017,06,25,03,13,16.10
2017,06,25,03,14,16.10
2017,06,25,03,15,16.10
2017,06,25,03,16,16.20
2017,06,25,03,17,16.10
2017,06,25,03,18,16.10
2017,06,25,03,19,16.20
2017,06,25,03,20,16.20
2017,06,25,03,21,16.30
2017,06,25,03,22,16.30
2017,06,25,03,23,16.30
2017,06,25,03,24,16.30
2017,06,25,03,25,16.30
2017,06,25,03,26,16.30
2017,06,25,03,27,16.30
2017,06,25,03,28,16.30
2017,06,25,03,29,16.30
2017,06,25,03,30,16.30
2017,06,25,03,31,16.30
2017,06,25,03,32,16.30
2017,06,25,03,33,16.30
2017,06,25,03,34,16.20
2017,06,25,03,35,16.20
2017,06,25,03,36,16.20
2017,06,25,03,37,16.10
2017,06,25,03,38,16.10
2017,06,25,03,39,16.00
2017,06,25,03,40,16.00
2017,06,25,03,41,15.90
2017,06,25,03,42,16.00
2017,06,25,03,43,16.00
2017,06,25,03,44,16.00
2017,06,25,03,45,16.00
2017,06,25,03,46,16.00
2017,06,25,03,47,15.90
2017,06,25,03,48,15.90
2017,06,25,03,49,15.90
2017,06,25,03,50,15.80
2017,06,25,03,51,15.80
2017,06,25,03,52,15.80
2017,06,25,03,53,15.80
2017,06,25,03,54,15.80
2017,06,25,03,55,15.70
2017,06,25,03,56,15.70
2017,06,25,03,57,15.70
2017,06,25,03,58,15.70
2017,06,25,03,59,15.60
2017,06,25,04,00,15.60
2017,06,25,04,01,15.60
2017,06,25,04,02,15.50
2017,06,25,04,03,15.50
2017,06,25,04,04,15.40
2017,06,25,04,05,15.40
2017,06,25,04,06,15.30
2017,06,25,04,07,15.30
2017,06,25,04,08,15.30
2017,06,25,04,09,15.30
2017,06,25,04,10,15.20
2017,06,25,04,11,15.20
2017,06,25,04,12,15.20
2017,06,25,04,13,15.20
2017,06,25,04,14,15.20
2017,06,25,04,15,15.20
2017,06,25,04,16,15.10
2017,06,25,04,17,15.20
2017,06,25,04,18,15.10
2017,06,25,04,19,15.10
2017,06,25,04,20,15.10
2017,06,25,04,21,15.10
2017,06,25,04,22,15.10
2017,06,25,04,23,15.20
2017,06,25,04,24,15.20
2017,06,25,04,25,15.20
2017,06,25,04,26,15.20
2017,06,25,04,27,15.20
2017,06,25,04,28,15.20
2017,06,25,04,29,15.20
2017,06,25,04,30,15.20
2017,06,25,04,31,15.20
2017,06,25,04,32,15.20
2017,06,25,04,33,15.20
2017,06,25,04,34,15.20
2017,06,25,04,35,15.10
2017,06,25,04,36,15.10
2017,06,25,04,37,15.10
2017,06,25,04,38,15.10
2017,06,25,04,39,15.00
2017,06,25,04,40,15.00
2017,06,25,04,41,15.00
2017,06,25,04,42,14.90
2017,06,25,04,43,14.90
2017,06,25,04,44,14.90
2017,06,25,04,45,14.80
2017,06,25,04,46,14.80
2017,06,25,04,47,14.80
2017,06,25,04,48,14.80
2017,06,25,04,49,14.70
2017,06,25,04,50,14.70
2017,06,25,04,51,14.70
2017,06,25,04,52,14.70
2017,06,25,04,53,14.70
2017,06,25,04,54,14.70
2017,06,25,04,55,14.70
2017,06,25,04,56,14.70
2017,06,25,04,57,14.70
2017,06,25,04,58,14.70
2017,06,25,04,59,14.70
2017,06,25,05,00,14.70
2017,06,25,05,01,14.70
2017,06,25,05,02,14.70
2017,06,25,05,03,14.70
2017,06,25,05,04,14.70
2017,06,25,05,05,14.70
2017,06,25,05,06,14.80
2017,06,25,05,07,14.80
2017,06,25,05,08,14.80
2017,06,25,05,09,14.80
2017,06,25,05,10,14.80
2017,06,25,05,11,14.80
2017,06,25,05,12,14.80
2017,06,25,05,13,14.80
2017,06,25,05,14,14.80
2017,06,25,05,15,14.90
2017,06,25,05,16,14.90
2017,06,25,05,17,14.90
2017,06,25,05,18,15.00
2017,06,25,05,19,15.00
2017,06,25,05,20,15.00
2017,06,25,05,21,15.00
2017,06,25,05,22,15.00
2017,06,25,05,23,15.00
2017,06,25,05,24,15.00
2017,06,25,05,25,15.00
2017,06,25,05,26,15.00
2017,06,25,05,27,15.00
2017,06,25,05,28,14.90
2017,06,25,05,29,14.90
2017,06,25,05,30,14.90
2017,06,25,05,31,14.90
2017,06,25,05,32,15.00
2017,06,25,05,33,14.90
2017,06,25,05,34,14.90
2017,06,25,05,35,14.90
2017,06,25,05,36,14.90
2017,06,25,05,37,14.90
2017,06,25,05,38,14.90
2017,06,25,05,39,14.80
2017,06,25,05,40,14.80
2017,06,25,05,41,14.80
2017,06,25,05,42,14.70
2017,06,25,05,43,14.70
2017,06,25,05,44,14.70
2017,06,25,05,45,14.70
2017,06,25,05,46,14.60
2017,06,25,05,47,14.60
2017,06,25,05,48,14.60
2017,06,25,05,49,14.50
2017,06,25,05,50,14.60
2017,06,25,05,51,14.60
2017,06,25,05,52,14.60
2017,06,25,05,53,14.60
2017,06,25,05,54,14.60
2017,06,25,05,55,14.60
2017,06,25,05,56,14.70
2017,06,25,05,57,14.70
2017,06,25,05,58,14.70
2017,06,25,05,59,14.70
2017,06,25,06,00,14.70
2017,06,25,06,01,14.70
2017,06,25,06,02,14.80
2017,06,25,06,03,14.80
2017,06,25,06,04,14.80
2017,06,25,06,05,14.90
2017,06,25,06,06,14.90
2017,06,25,06,07,15.00
2017,06,25,06,08,15.00
2017,06,25,06,09,15.10
2017,06,25,06,10,15.10
2017,06,25,06,11,15.10
2017,06,25,06,12,15.20
2017,06,25,06,13,15.30
2017,06,25,06,14,15.30
2017,06,25,06,15,15.30
2017,06,25,06,16,15.40
2017,06,25,06,17,15.40
2017,06,25,06,18,15.50
2017,06,25,06,19,15.50
2017,06,25,06,20,15.60
2017,06,25,06,21,15.60
2017,06,25,06,22,15.60
2017,06,25,06,23,15.70
2017,06,25,06,24,15.70
2017,06,25,06,25,15.70
2017,06,25,06,26,15.70
2017,06,25,06,27,15.60
2017,06,25,06,28,15.60
2017,06,25,06,29,15.60
2017,06,25,06,30,15.60
2017,06,25,06,31,15.60
2017,06,25,06,32,15.60
2017,06,25,06,33,15.60
2017,06,25,06,34,15.60
2017,06,25,06,35,15.70
2017,06,25,06,36,15.70
2017,06,25,06,37,15.70
2017,06,25,06,38,15.80
2017,06,25,06,39,15.80
2017,06,25,06,40,15.90
2017,06,25,06,41,16.00
2017,06,25,06,42,16.00
2017,06,25,06,43,16.10
2017,06,25,06,44,16.20
2017,06,25,06,45,16.20
2017,06,25,06,46,16.30
2017,06,25,06,47,16.30
2017,06,25,06,48,16.50
2017,06,25,06,49,16.50
2017,06,25,06,50,16.70
2017,06,25,06,51,16.80
2017,06,25,06,52,16.80
2017,06,25,06,53,16.90
2017,06,25,06,54,17.00
2017,06,25,06,55,17.10
2017,06,25,06,56,17.10
2017,06,25,06,57,17.20
2017,06,25,06,58,17.20
2017,06,25,06,59,17.20
2017,06,25,07,00,17.30
2017,06,25,07,01,17.30
2017,06,25,07,02,17.30
2017,06,25,07,03,17.30
2017,06,25,07,04,17.40
2017,06,25,07,05,17.40
2017,06,25,07,06,17.40
2017,06,25,07,07,17.40
2017,06,25,07,08,17.50
2017,06,25,07,09,17.50
2017,06,25,07,10,17.60
2017,06,25,07,11,17.60
2017,06,25,07,12,17.70
2017,06,25,07,13,17.80
2017,06,25,07,14,17.80
2017,06,25,07,15,17.90
2017,06,25,07,16,17.90
2017,06,25,07,17,18.00
2017,06,25,07,18,18.10
2017,06,25,07,19,18.10
2017,06,25,07,20,18.20
2017,06,25,07,21,18.20
2017,06,25,07,22,18.20
2017,06,25,07,23,18.20
2017,06,25,07,24,18.10
2017,06,25,07,25,18.10
2017,06,25,07,26,18.10
2017,06,25,07,27,18.10
2017,06,25,07,28,18.10
2017,06,25,07,29,18.10
2017,06,25,07,30,18.10
2017,06,25,07,31,18.10
2017,06,25,07,32,18.10
2017,06,25,07,33,18.10
2017,06,25,07,34,18.10
2017,06,25,07,35,18.10
2017,06,25,07,36,18.10
2017,06,25,07,37,18.10
2017,06,25,07,38,18.10
2017,06,25,07,39,18.10
2017,06,25,07,40,18.10
2017,06,25,07,41,18.10
2017,06,25,07,42,18.10
2017,06,25,07,43,18.10
2017,06,25,07,44,18.20
2017,06,25,07,45,18.30
2017,06,25,07,46,18.30
2017,06,25,07,47,18.40
2017,06,25,07,48,18.60
2017,06,25,07,49,18.70
2017,06,25,07,50,18.80
2017,06,25,07,51,18.90
2017,06,25,07,52,19.00
2017,06,25,07,53,19.10
2017,06,25,07,54,19.20
2017,06,25,07,55,19.20
2017,06,25,07,56,19.20
2017,06,25,07,57,19.30
2017,06,25,07,58,19.30
2017,06,25,07,59,19.30
2017,06,25,08,00,19.30
2017,06,25,08,01,19.40
2017,06,25,08,02,19.50
2017,06,25,08,03,19.60
2017,06,25,08,04,19.70
2017,06,25,08,05,19.80
2017,06,25,08,06,19.90
2017,06,25,08,07,19.90
2017,06,25,08,08,20.00
2017,06,25,08,09,20.00
2017,06,25,08,10,20.10
2017,06,25,08,11,20.20
2017,06,25,08,12,20.30
2017,06,25,08,13,20.40
2017,06,25,08,14,20.40
2017,06,25,08,15,20.50
2017,06,25,08,16,20.60
2017,06,25,08,17,20.60
2017,06,25,08,18,20.70
2017,06,25,08,19,20.80
2017,06,25,08,20,20.90
2017,06,25,08,21,21.00
2017,06,25,08,22,21.10
2017,06,25,08,23,21.20
2017,06,25,08,24,21.20
2017,06,25,08,25,21.30
2017,06,25,08,26,21.40
2017,06,25,08,27,21.50
2017,06,25,08,28,21.70
2017,06,25,08,29,21.80
2017,06,25,08,30,21.90
2017,06,25,08,31,22.00
2017,06,25,08,32,22.20
2017,06,25,08,33,22.30
2017,06,25,08,34,22.40
2017,06,25,08,35,22.50
2017,06,25,08,36,22.60
2017,06,25,08,37,22.70
2017,06,25,08,38,22.80
2017,06,25,08,39,22.90
2017,06,25,08,40,22.90
2017,06,25,08,41,23.00
2017,06,25,08,42,23.10
2017,06,25,08,43,23.20
2017,06,25,08,44,23.30
2017,06,25,08,45,23.40
2017,06,25,08,46,23.50
2017,06,25,08,47,23.60
2017,06,25,08,48,23.60
2017,06,25,08,49,23.60
2017,06,25,08,50,23.60
2017,06,25,08,51,23.80
2017,06,25,08,52,23.80
2017,06,25,08,53,24.00
2017,06,25,08,54,24.10
2017,06,25,08,55,24.20
2017,06,25,08,56,24.40
2017,06,25,08,57,24.50
2017,06,25,08,58,24.50
2017,06,25,08,59,24.60
2017,06,25,09,00,24.70
2017,06,25,09,01,24.70
2017,06,25,09,02,24.80
2017,06,25,09,03,24.90
2017,06,25,09,04,25.00
2017,06,25,09,05,25.10
2017,06,25,09,06,25.10
2017,06,25,09,07,25.20
2017,06,25,09,08,25.20
2017,06,25,09,09,25.20
2017,06,25,09,10,25.20
2017,06,25,09,11,25.20
2017,06,25,09,12,25.20
2017,06,25,09,13,25.20
2017,06,25,09,14,25.30
2017,06,25,09,15,25.30
2017,06,25,09,16,25.50
2017,06,25,09,17,25.60
2017,06,25,09,18,25.80
2017,06,25,09,19,25.90
2017,06,25,09,20,26.10
2017,06,25,09,21,26.20
2017,06,25,09,22,26.30
2017,06,25,09,23,26.40
2017,06,25,09,24,26.40
2017,06,25,09,25,26.50
2017,06,25,09,26,26.50
2017,06,25,09,27,26.50
2017,06,25,09,28,26.50
2017,06,25,09,29,26.50
2017,06,25,09,30,26.50
2017,06,25,09,31,26.40
2017,06,25,09,32,26.40
2017,06,25,09,33,26.40
2017,06,25,09,34,26.50
2017,06,25,09,35,26.50
2017,06,25,09,36,26.50
2017,06,25,09,37,26.50
2017,06,25,09,38,26.70
2017,06,25,09,39,26.80
2017,06,25,09,40,26.90
2017,06,25,09,41,27.10
2017,06,25,09,42,27.20
2017,06,25,09,43,27.40
2017,06,25,09,44,27.60
2017,06,25,09,45,27.60
2017,06,25,09,46,27.70
2017,06,25,09,47,27.70
2017,06,25,09,48,27.80
2017,06,25,09,49,27.80
2017,06,25,09,50,27.90
2017,06,25,09,51,27.90
2017,06,25,09,52,27.90
2017,06,25,09,53,27.90
2017,06,25,09,54,27.90
2017,06,25,09,55,28.00
2017,06,25,09,56,28.00
2017,06,25,09,57,28.10
2017,06,25,09,58,28.10
2017,06,25,09,59,28.20
2017,06,25,10,00,28.30
2017,06,25,10,01,28.30
2017,06,25,10,02,28.30
2017,06,25,10,03,28.30
2017,06,25,10,04,28.30
2017,06,25,10,05,28.20
2017,06,25,10,06,28.20
2017,06,25,10,07,28.20
2017,06,25,10,08,28.30
2017,06,25,10,09,28.30
2017,06,25,10,10,28.30
2017,06,25,10,11,28.40
2017,06,25,10,12,28.40
2017,06,25,10,13,28.30
2017,06,25,10,14,28.40
2017,06,25,10,15,28.50
2017,06,25,10,16,28.50
2017,06,25,10,17,28.60
2017,06,25,10,18,28.70
2017,06,25,10,19,28.70
2017,06,25,10,20,28.70
2017,06,25,10,21,28.70
2017,06,25,10,22,28.80
2017,06,25,10,23,28.80
2017,06,25,10,24,28.80
2017,06,25,10,25,28.80
2017,06,25,10,26,28.70
2017,06,25,10,27,28.70
2017,06,25,10,28,28.50
2017,06,25,10,29,28.40
2017,06,25,10,30,28.30
2017,06,25,10,31,28.30
2017,06,25,10,32,28.30
2017,06,25,10,33,28.30
2017,06,25,10,34,28.40
2017,06,25,10,35,28.30
2017,06,25,10,36,28.30
2017,06,25,10,37,28.10
2017,06,25,10,38,27.90
2017,06,25,10,39,27.80
2017,06,25,10,40,27.60
2017,06,25,10,41,27.50
2017,06,25,10,42,27.50
2017,06,25,10,43,27.60
2017,06,25,10,44,27.60
2017,06,25,10,45,27.70
2017,06,25,10,46,27.70
2017,06,25,10,47,27.70
2017,06,25,10,48,27.70
2017,06,25,10,49,27.70
2017,06,25,10,50,27.70
2017,06,25,10,51,27.60
2017,06,25,10,52,27.60
2017,06,25,10,53,27.60
2017,06,25,10,54,27.40
2017,06,25,10,55,27.30
2017,06,25,10,56,27.20
2017,06,25,10,57,27.20
2017,06,25,10,58,27.30
2017,06,25,10,59,27.20
2017,06,25,11,00,27.20
2017,06,25,11,01,27.10
2017,06,25,11,02,27.10
2017,06,25,11,03,27.20
2017,06,25,11,04,27.20
2017,06,25,11,05,27.30
2017,06,25,11,06,27.30
2017,06,25,11,07,27.40
2017,06,25,11,08,27.50
2017,06,25,11,09,27.60
2017,06,25,11,10,27.70
2017,06,25,11,11,27.80
2017,06,25,11,12,27.90
2017,06,25,11,13,27.90
2017,06,25,11,14,27.80
2017,06,25,11,15,27.80
2017,06,25,11,16,27.60
2017,06,25,11,17,27.50
2017,06,25,11,18,27.50
2017,06,25,11,19,27.40
2017,06,25,11,20,27.40
2017,06,25,11,21,27.40
2017,06,25,11,22,27.30
2017,06,25,11,23,27.30
2017,06,25,11,24,27.20
2017,06,25,11,25,27.20
2017,06,25,11,26,27.20
2017,06,25,11,27,27.20
2017,06,25,11,28,27.10
2017,06,25,11,29,27.10
2017,06,25,11,30,27.00
2017,06,25,11,31,27.00
2017,06,25,11,32,27.00
2017,06,25,11,33,26.90
2017,06,25,11,34,26.80
2017,06,25,11,35,26.70
2017,06,25,11,36,26.60
2017,06,25,11,37,26.50
2017,06,25,11,38,26.30
2017,06,25,11,39,26.10
2017,06,25,11,40,25.70
2017,06,25,11,41,25.50
2017,06,25,11,42,25.00
2017,06,25,11,43,24.60
2017,06,25,11,44,24.30
2017,06,25,11,45,24.00
2017,06,25,11,46,23.80
2017,06,25,11,47,23.70
2017,06,25,11,48,23.60
2017,06,25,11,49,23.50
2017,06,25,11,50,23.50
2017,06,25,11,51,23.50
2017,06,25,11,52,23.40
2017,06,25,11,53,23.40
2017,06,25,11,54,23.50
2017,06,25,11,55,23.60
2017,06,25,11,56,23.70
2017,06,25,11,57,23.80
2017,06,25,11,58,24.00
2017,06,25,11,59,24.10
2017,06,25,12,00,24.20
2017,06,25,12,01,24.10
2017,06,25,12,02,24.10
2017,06,25,12,03,24.00
2017,06,25,12,04,23.90
2017,06,25,12,05,23.90
2017,06,25,12,06,24.00
2017,06,25,12,07,24.00
2017,06,25,12,08,24.10
2017,06,25,12,09,24.10
2017,06,25,12,10,24.20
2017,06,25,12,11,24.20
2017,06,25,12,12,24.20
2017,06,25,12,13,24.20
2017,06,25,12,14,24.20
2017,06,25,12,15,24.30
2017,06,25,12,16,24.30
2017,06,25,12,17,24.30
2017,06,25,12,18,24.20
2017,06,25,12,19,24.20
2017,06,25,12,20,24.30
2017,06,25,12,21,24.30
2017,06,25,12,22,24.40
2017,06,25,12,23,24.40
2017,06,25,12,24,24.50
2017,06,25,12,25,24.50
2017,06,25,12,26,24.60
2017,06,25,12,27,24.60
2017,06,25,12,28,24.70
2017,06,25,12,29,24.80
2017,06,25,12,30,25.00
2017,06,25,12,31,25.00
2017,06,25,12,32,25.10
2017,06,25,12,33,25.20
2017,06,25,12,34,25.30
2017,06,25,12,35,25.40
2017,06,25,12,36,25.60
2017,06,25,12,37,25.70
2017,06,25,12,38,25.90
2017,06,25,12,39,26.00
2017,06,25,12,40,26.10
2017,06,25,12,41,26.20
2017,06,25,12,42,26.30
2017,06,25,12,43,26.40
2017,06,25,12,44,26.40
2017,06,25,12,45,26.60
2017,06,25,12,46,26.70
2017,06,25,12,47,26.80
2017,06,25,12,48,26.90
2017,06,25,12,49,27.00
2017,06,25,12,50,27.10
2017,06,25,12,51,27.10
2017,06,25,12,52,27.10
2017,06,25,12,53,27.10
2017,06,25,12,54,27.20
2017,06,25,12,55,27.20
2017,06,25,12,56,27.20
2017,06,25,12,57,27.20
2017,06,25,12,58,27.10
2017,06,25,12,59,27.10
2017,06,25,13,00,27.10
2017,06,25,13,01,27.10
2017,06,25,13,02,27.20
2017,06,25,13,03,27.30
2017,06,25,13,04,27.40
2017,06,25,13,05,27.30
2017,06,25,13,06,27.30
2017,06,25,13,07,27.20
2017,06,25,13,08,27.10
2017,06,25,13,09,27.00
2017,06,25,13,10,26.90
2017,06,25,13,11,26.90
2017,06,25,13,12,26.80
2017,06,25,13,13,26.80
2017,06,25,13,14,26.80
2017,06,25,13,15,26.70
2017,06,25,13,16,26.70
2017,06,25,13,17,26.60
2017,06,25,13,18,26.50
2017,06,25,13,19,26.40
2017,06,25,13,20,26.20
2017,06,25,13,21,26.10
2017,06,25,13,22,26.10
2017,06,25,13,23,26.00
2017,06,25,13,24,26.10
2017,06,25,13,25,26.10
2017,06,25,13,26,26.20
2017,06,25,13,27,26.20
2017,06,25,13,28,26.20
2017,06,25,13,29,26.20
2017,06,25,13,30,26.30
2017,06,25,13,31,26.30
2017,06,25,13,32,26.30
2017,06,25,13,33,26.30
2017,06,25,13,34,26.30
2017,06,25,13,35,26.30
2017,06,25,13,36,26.20
2017,06,25,13,37,26.20
2017,06,25,13,38,26.10
2017,06,25,13,39,26.00
2017,06,25,13,40,26.00
2017,06,25,13,41,25.90
2017,06,25,13,42,25.90
2017,06,25,13,43,25.90
2017,06,25,13,44,25.90
2017,06,25,13,45,25.80
2017,06,25,13,46,25.80
2017,06,25,13,47,25.80
2017,06,25,13,48,25.80
2017,06,25,13,49,25.80
2017,06,25,13,50,25.90
2017,06,25,13,51,25.90
2017,06,25,13,52,25.90
2017,06,25,13,53,25.90
2017,06,25,13,54,25.80
2017,06,25,13,55,25.80
2017,06,25,13,56,25.80
2017,06,25,13,57,25.80
2017,06,25,13,58,25.80
2017,06,25,13,59,25.70
2017,06,25,14,00,25.70
2017,06,25,14,01,25.70
2017,06,25,14,02,25.80
2017,06,25,14,03,25.80
2017,06,25,14,04,25.80
2017,06,25,14,05,25.80
2017,06,25,14,06,25.80
2017,06,25,14,07,25.90
2017,06,25,14,08,26.00
2017,06,25,14,09,26.10
2017,06,25,14,10,26.10
2017,06,25,14,11,26.20
2017,06,25,14,12,26.20
2017,06,25,14,13,26.20
2017,06,25,14,14,26.20
2017,06,25,14,15,26.20
2017,06,25,14,16,26.10
2017,06,25,14,17,26.10
2017,06,25,14,18,26.10
2017,06,25,14,19,26.10
2017,06,25,14,20,26.10
2017,06,25,14,21,26.00
2017,06,25,14,22,25.90
2017,06,25,14,23,25.80
2017,06,25,14,24,25.70
2017,06,25,14,25,25.70
2017,06,25,14,26,25.70
2017,06,25,14,27,25.60
2017,06,25,14,28,25.70
2017,06,25,14,29,25.70
2017,06,25,14,30,25.70
2017,06,25,14,31,25.70
2017,06,25,14,32,25.90
2017,06,25,14,33,26.00
2017,06,25,14,34,26.20
2017,06,25,14,35,26.30
2017,06,25,14,36,26.40
2017,06,25,14,37,26.40
2017,06,25,14,38,26.50
2017,06,25,14,39,26.50
2017,06,25,14,40,26.50
2017,06,25,14,41,26.60
2017,06,25,14,42,26.60
2017,06,25,14,43,26.60
2017,06,25,14,44,26.60
2017,06,25,14,45,26.60
2017,06,25,14,46,26.60
2017,06,25,14,47,26.60
2017,06,25,14,48,26.60
2017,06,25,14,49,26.60
2017,06,25,14,50,26.50
2017,06,25,14,51,26.50
2017,06,25,14,52,26.40
2017,06,25,14,53,26.30
2017,06,25,14,54,26.30
2017,06,25,14,55,26.40
2017,06,25,14,56,26.40
2017,06,25,14,57,26.40
2017,06,25,14,58,26.40
2017,06,25,14,59,26.50
2017,06,25,15,00,26.50
2017,06,25,15,01,26.60
2017,06,25,15,02,26.60
2017,06,25,15,03,26.60
2017,06,25,15,04,26.60
2017,06,25,15,05,26.60
2017,06,25,15,06,26.70
2017,06,25,15,07,26.70
2017,06,25,15,08,26.80
2017,06,25,15,09,26.90
2017,06,25,15,10,27.00
2017,06,25,15,11,27.10
2017,06,25,15,12,27.20
2017,06,25,15,13,27.30
2017,06,25,15,14,27.40
2017,06,25,15,15,27.40
2017,06,25,15,16,27.40
2017,06,25,15,17,27.40
2017,06,25,15,18,27.30
2017,06,25,15,19,27.20
2017,06,25,15,20,27.10
2017,06,25,15,21,27.00
2017,06,25,15,22,26.90
2017,06,25,15,23,26.90
2017,06,25,15,24,26.90
2017,06,25,15,25,27.00
2017,06,25,15,26,27.10
2017,06,25,15,27,27.10
2017,06,25,15,28,27.10
2017,06,25,15,29,27.10
2017,06,25,15,30,27.10
2017,06,25,15,31,27.00
2017,06,25,15,32,26.90
2017,06,25,15,33,26.90
2017,06,25,15,34,26.90
2017,06,25,15,35,26.80
2017,06,25,15,36,26.80
2017,06,25,15,37,26.80
2017,06,25,15,38,26.70
2017,06,25,15,39,26.80
2017,06,25,15,40,26.80
2017,06,25,15,41,26.90
2017,06,25,15,42,27.00
2017,06,25,15,43,27.10
2017,06,25,15,44,27.20
2017,06,25,15,45,27.30
2017,06,25,15,46,27.40
2017,06,25,15,47,27.50
2017,06,25,15,48,27.60
2017,06,25,15,49,27.80
2017,06,25,15,50,28.00
2017,06,25,15,51,28.00
2017,06,25,15,52,28.10
2017,06,25,15,53,28.20
2017,06,25,15,54,28.20
2017,06,25,15,55,28.30
2017,06,25,15,56,28.30
2017,06,25,15,57,28.40
2017,06,25,15,58,28.40
2017,06,25,15,59,28.50
2017,06,25,16,00,28.50
2017,06,25,16,01,28.60
2017,06,25,16,02,28.70
2017,06,25,16,03,28.70
2017,06,25,16,04,28.70
2017,06,25,16,05,28.60
2017,06,25,16,06,28.60
2017,06,25,16,07,28.40
2017,06,25,16,08,28.30
2017,06,25,16,09,28.20
2017,06,25,16,10,27.90
2017,06,25,16,11,27.80
2017,06,25,16,12,27.80
2017,06,25,16,13,27.70
2017,06,25,16,14,27.60
2017,06,25,16,15,27.40
2017,06,25,16,16,27.30
2017,06,25,16,17,27.20
2017,06,25,16,18,27.20
2017,06,25,16,19,27.20
2017,06,25,16,20,27.20
2017,06,25,16,21,27.20
2017,06,25,16,22,27.20
2017,06,25,16,23,27.20
2017,06,25,16,24,27.30
2017,06,25,16,25,27.50
2017,06,25,16,26,27.60
2017,06,25,16,27,27.60
2017,06,25,16,28,27.70
2017,06,25,16,29,27.60
2017,06,25,16,30,27.50
2017,06,25,16,31,27.40
2017,06,25,16,32,27.40
2017,06,25,16,33,27.30
2017,06,25,16,34,27.30
2017,06,25,16,35,27.30
2017,06,25,16,36,27.30
2017,06,25,16,37,27.30
2017,06,25,16,38,27.20
2017,06,25,16,39,27.20
2017,06,25,16,40,27.20
2017,06,25,16,41,27.10
2017,06,25,16,42,27.10
2017,06,25,16,43,27.10
2017,06,25,16,44,27.10
2017,06,25,16,45,27.10
2017,06,25,16,46,27.10
2017,06,25,16,47,27.00
2017,06,25,16,48,26.80
2017,06,25,16,49,26.60
2017,06,25,16,50,26.30
2017,06,25,16,51,26.00
2017,06,25,16,52,25.70
2017,06,25,16,53,25.40
2017,06,25,16,54,25.20
2017,06,25,16,55,25.10
2017,06,25,16,56,25.00
2017,06,25,16,57,24.90
2017,06,25,16,58,24.90
2017,06,25,16,59,24.80
2017,06,25,17,00,24.70
2017,06,25,17,01,24.60
2017,06,25,17,02,24.50
2017,06,25,17,03,24.50
2017,06,25,17,04,24.50
2017,06,25,17,05,24.60
2017,06,25,17,06,24.50
2017,06,25,17,07,24.50
2017,06,25,17,08,24.40
2017,06,25,17,09,24.30
2017,06,25,17,10,24.20
2017,06,25,17,11,24.20
2017,06,25,17,12,24.20
2017,06,25,17,13,24.10
2017,06,25,17,14,24.10
2017,06,25,17,15,24.10
2017,06,25,17,16,24.00
2017,06,25,17,17,24.00
2017,06,25,17,18,23.90
2017,06,25,17,19,23.80